CW9861 Weather Reports


time (UTC)temp
F
wind
direction
speed
knots
gust
knots
rain 1hr
in
rain 24hr
in
rain mn
in
humidity
%
barometer
mb
20260509010959 56 246 0.0 0.0 0.00 0.00 0.00 38 1004.9
20260509010500 56 246 0.0 0.0 0.00 0.00 0.00 38 1004.9
20260509010001 57 246 0.0 0.0 0.00 0.00 0.00 37 1005.0
20260509005500 58 246 0.0 0.0 0.00 0.00 0.00 36 1005.0
20260509005001 58 246 0.0 0.0 0.00 0.00 0.00 36 1005.0
20260509004500 59 246 0.0 0.0 0.00 0.00 0.00 35 1005.0
20260509004000 59 246 0.0 0.9 0.00 0.00 0.00 35 1005.0
20260509003501 59 246 0.0 0.9 0.00 0.00 0.00 34 1004.9
20260509003000 60 246 0.0 0.0 0.00 0.00 0.00 33 1005.0
20260509002500 60 246 0.0 0.9 0.00 0.00 0.00 32 1005.0
20260509002000 60 246 0.0 1.7 0.00 0.00 0.00 32 1005.0
20260509001500 60 238 0.0 1.7 0.00 0.00 0.00 32 1005.1
20260509001000 60 253 0.0 3.5 0.00 0.00 0.00 33 1005.2
20260509000500 61 218 0.9 4.3 0.00 0.00 0.00 32 1005.2
20260508235959 61 225 0.9 4.3 0.00 0.00 0.00 32 1005.4
20260508235459 60 229 0.9 4.3 0.00 0.00 0.00 32 1005.4
20260508234958 61 276 0.9 4.3 0.00 0.00 0.00 32 1005.4
20260508234500 61 260 1.7 7.8 0.00 0.00 0.00 33 1005.4
20260508233958 61 328 2.6 7.8 0.00 0.00 0.00 32 1005.4
20260508233458 61 282 1.7 5.2 0.00 0.00 0.00 33 1005.4
20260508232959 61 243 1.7 4.3 0.00 0.00 0.00 34 1005.4
20260508232459 61 251 1.7 5.2 0.00 0.00 0.00 33 1005.4
20260508231959 61 266 1.7 5.2 0.00 0.00 0.00 33 1005.4
20260508231458 61 334 2.6 7.0 0.00 0.00 0.00 32 1005.4
20260508220459 63 337 2.6 7.0 0.00 0.00 0.00 32 1005.4
20260508215958 63 276 1.7 7.0 0.00 0.00 0.00 32 1005.5
20260508215459 64 340 2.6 5.2 0.00 0.00 0.00 31 1005.5
20260508214958 64 259 1.7 4.3 0.00 0.00 0.00 32 1005.5
20260508214459 64 260 2.6 7.0 0.00 0.00 0.00 28 1005.4
20260508213959 63 257 2.6 7.8 0.00 0.00 0.00 31 1005.4
20260508213459 63 266 3.5 8.7 0.00 0.00 0.00 29 1005.5
20260508205959 64 293 2.6 8.7 0.00 0.00 0.00 30 1005.7
20260508205458 64 336 5.2 8.7 0.00 0.00 0.00 30 1005.8
20260508204958 64 226 3.5 8.7 0.00 0.00 0.00 28 1005.7
20260508204458 64 355 3.5 7.8 0.00 0.00 0.00 30 1005.7
20260508203959 64 217 3.5 8.7 0.00 0.00 0.00 30 1005.8
20260508203458 64 324 4.3 8.7 0.00 0.00 0.00 29 1005.8
20260508202959 65 260 2.6 4.3 0.00 0.00 0.00 29 1006.0
20260508202456 65 254 2.6 7.8 0.00 0.00 0.00 31 1006.2
20260508201956 65 209 3.5 7.8 0.00 0.00 0.00 29 1006.1
20260508201457 65 305 2.6 7.8 0.00 0.00 0.00 29 1006.1
20260508200957 65 221 3.5 7.8 0.00 0.00 0.00 29 1006.1
20260508200457 65 281 1.7 7.8 0.00 0.00 0.00 30 1006.2
20260508195958 65 307 3.5 9.6 0.00 0.00 0.00 29 1006.3
20260508192456 65 195 3.5 7.0 0.00 0.00 0.00 32 1006.7
20260508191956 65 199 2.6 7.0 0.00 0.00 0.00 33 1006.7
20260508191455 64 318 3.5 6.1 0.00 0.00 0.00 31 1006.7
20260508190956 64 299 2.6 7.8 0.00 0.00 0.00 34 1006.7
20260508190455 63 305 3.5 7.8 0.00 0.00 0.00 32 1006.8
20260508185958 64 224 3.5 7.8 0.00 0.00 0.00 32 1006.8
20260508185457 62 236 3.5 7.0 0.00 0.00 0.00 33 1006.9
20260508184957 63 352 1.7 6.1 0.00 0.00 0.00 39 1007.0
20260508184457 63 325 2.6 6.1 0.00 0.00 0.00 37 1007.0
20260508183957 62 266 3.5 8.7 0.00 0.00 0.00 37 1007.0
20260508183458 63 271 3.5 8.7 0.00 0.00 0.00 37 1007.0
20260508182958 63 213 3.5 7.8 0.00 0.00 0.00 36 1007.1
20260508182457 62 266 2.6 9.6 0.00 0.00 0.00 37 1007.3
20260508174956 61 230 1.7 5.2 0.00 0.00 0.00 37 1007.5
20260508174456 61 350 1.7 7.0 0.00 0.00 0.00 39 1007.6
20260508173956 60 220 2.6 7.0 0.00 0.00 0.00 32 1007.9
20260508173456 61 205 0.9 9.6 0.00 0.00 0.00 34 1008.0
20260508172956 62 220 3.5 9.6 0.00 0.00 0.00 35 1008.1
20260508172456 62 280 2.6 5.2 0.00 0.00 0.00 37 1008.1
20260508171955 61 261 1.7 5.2 0.00 0.00 0.00 36 1008.2
20260508171457 61 23 1.7 7.8 0.00 0.00 0.00 37 1008.4
20260508170956 62 209 3.5 8.7 0.00 0.00 0.00 36 1008.4
20260508170455 61 257 3.5 8.7 0.00 0.00 0.00 32 1008.4
20260508165956 61 271 2.6 7.8 0.00 0.00 0.00 33 1008.4
20260508165456 61 318 2.6 9.6 0.00 0.00 0.00 32 1008.6
20260508164956 61 183 3.5 9.6 0.00 0.00 0.00 31 1008.7
20260508164456 62 294 1.7 7.0 0.00 0.00 0.00 34 1008.8
20260508163957 62 244 2.6 9.6 0.00 0.00 0.00 31 1008.8
20260508163456 61 339 2.6 10.4 0.00 0.00 0.00 32 1008.9
20260508162955 61 237 4.3 8.7 0.00 0.00 0.00 33 1008.9
20260508162456 61 276 2.6 8.7 0.00 0.00 0.00 32 1008.9
20260508161956 61 302 3.5 6.1 0.00 0.00 0.00 33 1009.0
20260508161456 61 276 2.6 7.0 0.00 0.00 0.00 35 1008.9
20260508160956 60 46 1.7 7.0 0.00 0.00 0.00 37 1008.9
20260508160456 59 220 1.7 6.1 0.00 0.00 0.00 36 1008.9
20260508155956 59 217 1.7 7.8 0.00 0.00 0.00 34 1009.0
20260508155456 59 311 3.5 7.8 0.00 0.00 0.00 36 1009.1
20260508154956 59 159 0.9 7.8 0.00 0.00 0.00 32 1009.2
20260508154456 59 305 2.6 5.2 0.00 0.00 0.00 40 1009.2
20260508153956 59 258 2.6 5.2 0.00 0.00 0.00 34 1009.2
20260508153456 59 271 1.7 7.8 0.00 0.00 0.00 35 1009.2
20260508152956 59 258 3.5 8.7 0.00 0.00 0.00 37 1009.3
20260508152456 59 145 3.5 8.7 0.00 0.00 0.00 33 1009.3
20260508151956 59 232 3.5 7.8 0.00 0.00 0.00 36 1009.4
20260508151456 58 297 2.6 7.8 0.00 0.00 0.00 36 1009.4
20260508150956 58 233 1.7 11.3 0.00 0.00 0.00 33 1009.3
20260508150456 58 237 4.3 11.3 0.00 0.00 0.00 35 1009.4
20260508145957 58 211 1.7 4.3 0.00 0.00 0.00 40 1009.4
20260508145456 58 325 1.7 7.0 0.00 0.00 0.00 42 1009.5
20260508144957 58 242 3.5 7.0 0.00 0.00 0.00 41 1009.4
20260508144456 57 231 1.7 4.3 0.00 0.00 0.00 39 1009.5
20260508143956 57 303 1.7 4.3 0.00 0.00 0.00 40 1009.6
20260508143456 57 217 1.7 4.3 0.00 0.00 0.00 40 1009.5
20260508142956 56 164 2.6 7.0 0.00 0.00 0.00 38 1009.5
20260508142456 56 222 4.3 7.0 0.00 0.00 0.00 39 1009.6
20260508141956 56 146 2.6 5.2 0.00 0.00 0.00 42 1009.7
20260508141456 56 276 2.6 4.3 0.00 0.00 0.00 45 1009.8
20260508140956 55 334 2.6 4.3 0.00 0.00 0.00 46 1009.8
20260508140456 55 208 2.6 4.3 0.00 0.00 0.00 44 1009.7
20260508135959 55 322 2.6 4.3 0.00 0.00 0.00 47 1009.7
20260508135457 55 221 1.7 4.3 0.00 0.00 0.00 51 1009.8
20260508134957 54 197 0.9 4.3 0.00 0.00 0.00 53 1009.8
20260508134456 54 304 2.6 4.3 0.00 0.00 0.00 53 1009.8
20260508133958 53 213 0.9 4.3 0.00 0.00 0.00 58 1009.8
20260508133457 53 239 1.7 3.5 0.00 0.00 0.00 59 1009.8
20260508132957 52 320 0.9 2.6 0.00 0.00 0.00 62 1009.8
20260508132457 52 219 0.9 4.3 0.00 0.00 0.00 60 1010.0
20260508131958 52 211 1.7 4.3 0.00 0.00 0.00 61 1010.1
20260508131457 52 244 0.9 2.6 0.00 0.00 0.00 61 1010.1
20260508130957 51 266 0.0 3.5 0.00 0.00 0.00 65 1010.1
20260508130457 50 221 0.9 3.5 0.00 0.00 0.00 63 1010.1
20260508125958 50 220 0.9 2.6 0.00 0.00 0.00 64 1010.2
20260508125457 49 213 0.9 2.6 0.00 0.00 0.00 69 1010.1
20260508124958 47 218 0.9 2.6 0.00 0.00 0.00 74 1010.2
20260508124457 42 246 0.0 2.6 0.00 0.00 0.00 90 1010.2
20260508123957 40 180 0.9 2.6 0.00 0.00 0.00 91 1010.1
20260508123456 39 181 0.0 1.7 0.00 0.00 0.00 91 1010.2
20260508122957 38 181 0.9 1.7 0.00 0.00 0.00 91 1010.1
20260508122458 37 220 0.9 1.7 0.00 0.00 0.00 91 1010.1
20260508121957 36 55 0.0 0.9 0.00 0.00 0.00 90 1010.0
20260508121456 35 22 0.0 0.0 0.00 0.00 0.00 90 1010.0
20260508120957 34 22 0.0 0.0 0.00 0.00 0.00 90 1009.8
20260508120457 33 22 0.0 0.0 0.00 0.00 0.00 90 1009.6
20260508115955 32 22 0.0 0.0 0.00 0.00 0.00 89 1009.7
20260508115455 32 22 0.0 0.0 0.00 0.00 0.00 89 1009.6
20260508114956 31 22 0.0 0.0 0.00 0.00 0.00 88 1009.7
20260508114455 31 22 0.0 0.0 0.00 0.00 0.00 88 1009.5
20260508113955 31 22 0.0 0.0 0.00 0.00 0.00 88 1009.5
20260508113455 30 22 0.0 0.0 0.00 0.00 0.00 88 1009.5
20260508112955 30 22 0.0 0.0 0.00 0.00 0.00 87 1009.5
20260508105455 30 22 0.0 0.0 0.00 0.00 0.00 87 1009.4
20260508104955 30 22 0.0 0.0 0.00 0.00 0.00 86 1009.4
20260508104455 30 22 0.0 0.0 0.00 0.00 0.00 86 1009.4
20260508103955 30 22 0.0 0.0 0.00 0.00 0.00 86 1009.4
20260508103455 30 22 0.0 0.0 0.00 0.00 0.00 86 1009.4
20260508102956 30 22 0.0 0.0 0.00 0.00 0.00 86 1009.3
20260508102455 30 22 0.0 0.0 0.00 0.00 0.00 85 1009.4
20260508101957 30 22 0.0 0.0 0.00 0.00 0.00 85 1009.4
20260508101455 30 22 0.0 0.0 0.00 0.00 0.00 85 1009.4
20260508100955 30 22 0.0 0.0 0.00 0.00 0.00 85 1009.5
20260508100456 30 22 0.0 0.0 0.00 0.00 0.00 85 1009.5
20260508095956 30 22 0.0 0.0 0.00 0.00 0.00 85 1009.5
20260508095456 31 22 0.0 0.0 0.00 0.00 0.00 85 1009.6
20260508091455 31 22 0.0 0.0 0.00 0.00 0.00 84 1009.7
20260508090955 31 22 0.0 0.0 0.00 0.00 0.00 83 1009.6
20260508090455 32 22 0.0 0.0 0.00 0.00 0.00 83 1009.6
20260508085958 32 22 0.0 0.0 0.00 0.00 0.00 83 1009.6
20260508085457 32 22 0.0 0.0 0.00 0.00 0.00 83 1009.6
20260508084956 32 22 0.0 0.0 0.00 0.00 0.00 83 1009.6
20260508084457 32 22 0.0 0.0 0.00 0.00 0.00 83 1009.6
20260508083958 32 22 0.0 0.0 0.00 0.00 0.00 83 1009.6
20260508083456 33 22 0.0 0.0 0.00 0.00 0.00 83 1009.6
20260508082957 33 22 0.0 0.0 0.00 0.00 0.00 83 1009.6
20260508082456 33 22 0.0 0.0 0.00 0.00 0.00 82 1009.7
20260508081955 33 22 0.0 0.0 0.00 0.00 0.00 83 1009.7
20260508081456 33 22 0.0 0.0 0.00 0.00 0.00 83 1009.8
20260508080956 34 22 0.0 0.0 0.00 0.00 0.00 83 1009.8
20260508080455 34 22 0.0 0.0 0.00 0.00 0.00 82 1009.9
20260508075956 34 22 0.0 0.0 0.00 0.00 0.00 82 1009.9
20260508075457 34 22 0.0 0.0 0.00 0.00 0.00 83 1009.8
20260508074957 34 22 0.0 0.0 0.00 0.00 0.00 83 1009.9
20260508074457 35 22 0.0 0.9 0.00 0.00 0.00 83 1009.8
20260508073957 35 22 0.0 0.9 0.00 0.00 0.00 82 1010.0
20260508073457 35 22 0.0 1.7 0.00 0.00 0.00 82 1009.9
20260508072956 35 22 0.9 1.7 0.00 0.00 0.00 81 1010.0
20260508072456 35 22 0.0 0.0 0.00 0.00 0.00 81 1009.9
20260508071956 35 22 0.0 0.0 0.00 0.00 0.00 81 1009.8
20260508071456 36 22 0.0 1.7 0.00 0.00 0.00 81 1009.8
20260508070957 36 22 0.0 1.7 0.00 0.00 0.00 81 1009.9
20260508070457 36 22 0.0 0.0 0.00 0.00 0.00 80 1009.9
20260508065957 36 22 0.0 0.0 0.00 0.00 0.00 80 1010.0
20260508065455 36 22 0.0 0.0 0.00 0.00 0.00 79 1010.0
20260508064955 37 22 0.0 0.0 0.00 0.00 0.00 79 1009.9
20260508064455 37 22 0.0 0.0 0.00 0.00 0.00 79 1009.9
20260508063955 37 22 0.0 0.0 0.00 0.00 0.00 79 1009.8
20260508063455 37 22 0.0 0.0 0.00 0.00 0.00 79 1009.9
20260508062956 37 22 0.0 0.0 0.00 0.00 0.00 79 1009.9
20260508062455 37 22 0.0 0.9 0.00 0.00 0.00 80 1010.0
20260508061955 37 22 0.0 0.9 0.00 0.00 0.00 79 1010.1
20260508061455 38 22 0.0 0.0 0.00 0.00 0.00 79 1010.1
20260508060955 38 22 0.0 0.0 0.00 0.00 0.00 79 1010.0
20260508060456 38 22 0.0 0.0 0.00 0.00 0.00 79 1010.1
20260508055956 38 22 0.0 0.0 0.00 0.00 0.00 78 1010.2
20260508055457 38 22 0.0 0.0 0.00 0.00 0.00 78 1010.2
20260508054957 38 22 0.0 0.0 0.00 0.00 0.00 78 1010.1
20260508054456 38 22 0.0 0.0 0.00 0.00 0.00 78 1010.2
20260508053956 39 22 0.0 0.0 0.00 0.00 0.00 78 1010.1
20260508053456 39 22 0.0 0.0 0.00 0.00 0.00 77 1010.1
20260508052957 39 22 0.0 0.0 0.00 0.00 0.00 77 1010.2
20260508052457 39 22 0.0 0.0 0.00 0.00 0.00 76 1010.2
20260508051956 39 22 0.0 0.0 0.00 0.00 0.00 76 1010.3
20260508051456 39 22 0.0 0.0 0.00 0.00 0.00 76 1010.4
20260508050956 39 22 0.0 0.0 0.00 0.00 0.00 76 1010.5
20260508050456 39 22 0.0 0.0 0.00 0.00 0.00 76 1010.5
20260508045958 39 22 0.0 0.0 0.00 0.00 0.00 76 1010.4
20260508045455 39 22 0.0 0.0 0.00 0.00 0.00 76 1010.4
20260508041956 39 22 0.0 0.0 0.00 0.00 0.00 75 1010.1
20260508041456 39 22 0.0 0.0 0.00 0.00 0.00 75 1010.1
20260508040956 39 22 0.0 0.0 0.00 0.00 0.00 74 1010.1
20260508040457 39 22 0.0 0.0 0.00 0.00 0.00 73 1010.1
20260508035956 39 22 0.0 0.0 0.00 0.00 0.00 73 1010.1
20260508035457 40 22 0.0 0.0 0.00 0.00 0.00 73 1010.1
20260508034956 40 22 0.0 0.0 0.00 0.00 0.00 72 1010.1
20260508034456 40 22 0.0 0.0 0.00 0.00 0.00 71 1010.2
20260508033955 40 22 0.0 0.0 0.00 0.00 0.00 71 1010.2
20260508033456 40 22 0.0 0.0 0.00 0.00 0.00 70 1010.2
20260508032956 40 22 0.0 0.0 0.00 0.00 0.00 70 1010.1
20260508032456 40 22 0.0 0.0 0.00 0.00 0.00 70 1010.1
20260508031956 41 22 0.0 0.0 0.00 0.00 0.00 70 1010.1
20260508031456 41 22 0.0 0.0 0.00 0.00 0.00 70 1010.1
20260508030956 41 22 0.0 0.0 0.00 0.00 0.00 70 1010.1
20260508030456 41 22 0.0 0.0 0.00 0.00 0.00 69 1010.1
20260508025957 42 22 0.0 0.0 0.00 0.00 0.00 67 1010.2
20260508025456 42 22 0.0 0.0 0.00 0.00 0.00 68 1010.2
20260508024956 42 22 0.0 0.0 0.00 0.00 0.00 67 1010.2
20260508024459 42 22 0.0 0.0 0.00 0.00 0.00 66 1010.2
20260508023956 42 22 0.0 0.0 0.00 0.00 0.00 65 1010.2
20260508023456 43 22 0.0 0.0 0.00 0.00 0.00 64 1010.2
20260508022956 43 22 0.0 0.0 0.00 0.00 0.00 64 1010.1
20260508022456 43 22 0.0 0.0 0.00 0.00 0.00 63 1010.1
20260508021956 43 22 0.0 0.0 0.00 0.00 0.00 63 1010.0
20260508021456 43 22 0.0 0.0 0.00 0.00 0.00 63 1010.0
20260508020956 44 22 0.0 1.7 0.00 0.00 0.00 64 1010.0
20260508020456 44 22 0.0 1.7 0.00 0.00 0.00 63 1009.9
20260508015956 44 3 0.0 0.0 0.00 0.00 0.00 58 1009.7
20260508015456 45 3 0.0 0.0 0.00 0.00 0.00 57 1009.8
20260508014957 45 3 0.0 0.0 0.00 0.00 0.00 58 1009.7
20260508011456 48 3 0.0 0.0 0.00 0.00 0.00 50 1009.2